Ft Lauderdale, FL

1:59 PM EDT on July 27, 2017 (GMT -0400)
Fort Lauderdale-Hollywood International

Weather History for KFLL - January, 2012

Change the Weather History Date:

Friday, January 13, 2012

  Actual Average Record
Temperature  
Mean Temperature 69 °F 69 °F  
Max Temperature 73 °F 76 °F 86 °F (1933)
Min Temperature 64 °F 61 °F 32 °F (1981)
Degree Days  
Heating Degree Days 0 2  
Month to date heating degree days 36 26  
Since 1 July heating degree days 37 58  
Cooling Degree Days 4 5  
Month to date cooling degree days 38 74  
Year to date cooling degree days 38 74  
Growing Degree Days 19 (Base 50)    
Moisture  
Dew Point 60 °F    
Average Humidity 73    
Maximum Humidity 87    
Minimum Humidity 58    
Precipitation  
Precipitation T in 0.08 in 1.97 in (2015)
Month to date precipitation T 1.07  
Year to date precipitation T 1.07  
Snow  
Snow 0.00 in - - ()
Month to date snowfall 0.0  
Since 1 July snowfall 0.0  
Snow Depth 0.00 in    
Sea Level Pressure  
Sea Level Pressure 30.10 in    
Wind  
Wind Speed 5 mph (NW)    
Max Wind Speed 13 mph    
Max Gust Speed 17 mph    
Visibility 10 miles    
Events      
T = Trace of Precipitation, MM = Missing Value Source: NWS Daily Summary

Daily Weather History Graph

Daily Weather History Graph

Search for Another Location

Airport or City:

Trip Planner

Search our weather history database for the weather conditions in past years. The results will help you decide how hot, cold, wet, or windy it might be!

Date:

Astronomy

Jan. 13, 2012 Rise Set
Actual Time 7:09 AM EST 5:48 PM EST
Civil Twilight 6:44 AM EST 6:13 PM EST
Nautical Twilight 6:16 AM EST 6:42 PM EST
Astronomical Twilight 5:48 AM EST 7:10 PM EST
Moon 10:24 PM EST (1/13) 9:54 AM EST (1/13)
Length of Visible Light 11h 29m
Length of Day
10h 39m
Waning Gibbous, 79% of the Moon is Illuminated
Jan 13
Waning Gibbous
Jan 16
Last Quarter
Jan 23
New
Jan 30
First Quarter
Feb 7
Full

Hourly Weather History & Observations

Time (EST) Temp. Dew Point Humidity Pressure Visibility Wind Dir Wind Speed Gust Speed Precip Events Conditions
12:53 AM 70.0 °F 62.1 °F 76% 30.00 in 10.0 mi WSW 3.5 mph - N/A   Mostly Cloudy
1:53 AM 70.0 °F 63.0 °F 78% 30.02 in 10.0 mi West 4.6 mph - N/A   Mostly Cloudy
2:53 AM 69.1 °F 63.0 °F 81% 30.03 in 10.0 mi West 3.5 mph - N/A   Mostly Cloudy
3:53 AM 69.1 °F 63.0 °F 81% 30.04 in 10.0 mi WNW 4.6 mph - 0.00 in   Overcast
4:53 AM 68.0 °F 64.0 °F 87% 30.04 in 10.0 mi Calm Calm - N/A   Mostly Cloudy
5:53 AM 69.1 °F 63.0 °F 81% 30.06 in 10.0 mi West 4.6 mph - N/A   Mostly Cloudy
6:53 AM 68.0 °F 63.0 °F 84% 30.07 in 10.0 mi SW 5.8 mph - 0.00 in   Mostly Cloudy
7:53 AM 69.1 °F 63.0 °F 81% 30.08 in 10.0 mi West 4.6 mph - N/A   Mostly Cloudy
8:53 AM 70.0 °F 63.0 °F 78% 30.11 in 10.0 mi WSW 3.5 mph - N/A   Mostly Cloudy
9:53 AM 72.0 °F 63.0 °F 73% 30.13 in 10.0 mi NW 8.1 mph - N/A   Mostly Cloudy
10:53 AM 71.1 °F 62.1 °F 73% 30.13 in 10.0 mi NNW 8.1 mph - N/A   Mostly Cloudy
11:53 AM 71.1 °F 61.0 °F 70% 30.12 in 10.0 mi NNW 9.2 mph - N/A   Mostly Cloudy
12:53 PM 72.0 °F 60.1 °F 66% 30.10 in 10.0 mi NNW 9.2 mph - N/A   Mostly Cloudy
1:53 PM 70.0 °F 59.0 °F 68% 30.09 in 10.0 mi NW 5.8 mph - N/A   Mostly Cloudy
2:53 PM 71.1 °F 59.0 °F 66% 30.09 in 10.0 mi NNW 3.5 mph - N/A   Mostly Cloudy
3:53 PM 72.0 °F 60.1 °F 66% 30.09 in 10.0 mi NNW 3.5 mph - N/A   Mostly Cloudy
4:53 PM 71.1 °F 59.0 °F 66% 30.10 in 10.0 mi North 3.5 mph - N/A   Partly Cloudy
5:53 PM 70.0 °F 57.0 °F 63% 30.12 in 10.0 mi North 3.5 mph - N/A   Scattered Clouds
6:53 PM 70.0 °F 57.0 °F 63% 30.13 in 10.0 mi North 5.8 mph - N/A   Overcast
7:53 PM 66.9 °F 55.9 °F 68% 30.14 in 10.0 mi North 5.8 mph - N/A   Scattered Clouds
8:53 PM 68.0 °F 53.1 °F 59% 30.15 in 10.0 mi NW 3.5 mph - N/A   Mostly Cloudy
9:53 PM 66.9 °F 52.0 °F 59% 30.15 in 10.0 mi Calm Calm - N/A   Scattered Clouds
10:53 PM 66.0 °F 52.0 °F 60% 30.16 in 10.0 mi WNW 4.6 mph - N/A   Partly Cloudy
11:53 PM 64.0 °F 55.0 °F 73% 30.16 in 10.0 mi NW 9.2 mph - N/A   Mostly Cloudy